Sign up to stay up to date on the Templeton Real Estate Market!

or Create your own market report
Active Properties
Address Beds Baths Living ft2 List Price Cost per ft2 DOM
3310 Neal Spring Road 3 3 2,634 $1,795,000 $681 10 days
1530 Granache Way 3 3 2,195 $1,050,000 $478 11 days
1550 Winery Canyon Road 3 3 2,369 $2,495,000 $1,053 10 days
2325 Warm Springs Lane 3 4 4,123 $2,795,000 $677 12 days
1735 Las Tablas Road 2 1 884 $930,000 $1,052 18 days
8345 Green Valley Road 5 9 8,193 $8,500,000 $1,037 29 days
350 Ward Court 3 3 1,587 $679,000 $427 39 days
469 Eric Lane 4 3 2,325 $749,000 $322 47 days
2255 Warm Springs Lane 4 7 5,100 $2,375,000 $465 99 days
1555 Indian Camp Road 3 3 3,032 $2,399,000 $791 143 days
11990 Santa Rosa Creek Road 8 3 2,991 $4,900,000 $1,638 651 days
Average: 3.7 3.8 3,221 $2,606,090 $784 97 days
Viewing 1 - 11 of 11
Viewing 1 - 11 of 11
Properties Under Contract
Address Beds Baths Living ft2 List Price Cost per ft2 DOM
525 Salinas Avenue 3 3 1,976 $699,000 $353 4 days
765 Peterson Ranch Road 5 4 2,674 $867,000 $324 3 days
3030 Road Runner Lane 4 3 2,500 $1,150,000 $460 10 days
177 Sweetwater Lane 3 3 1,539 $599,900 $389 6 days
150 7th Street 2 3 2,356 $625,000 $265 9 days
1940 Laguna Del Campo 3 3 3,586 $1,675,000 $467 9 days
160 Reflection Place 3 3 1,539 $560,000 $363 5 days
530 Santa Rita Road 4 2 1,827 $875,000 $478 5 days
161 Julie Lane 3 2 1,795 $659,000 $367 1 day
1744 Santa Rita Road 4 3 1,920 $950,900 $495 12 days
430 Cayucos Avenue 3 2 1,088 $495,000 $454 39 days
66 Gray Pine Avenue 3 2 1,226 $495,000 $403 23 days
1457 Condor Lane 3 2 1,384 $654,000 $472 42 days
406 Eric Lane 3 2 1,374 $635,000 $462 47 days
3568 Trails End 3 2 1,860 $950,000 $510 73 days
550 Templeton Road 1 1 1,007 $1,550,000 $1,539 73 days
5330 Dana Lane 4 4 3,167 $2,695,000 $850 255 days
Average: 3.2 2.6 1,930 $949,105 $509 4 days
Viewing 1 - 17 of 17
Viewing 1 - 17 of 17
Sold Properties
Address Beds Baths Living ft2 List Price Sold Price Cost per ft2 DOM Sold Date
2440 Laguna Del Campo 3 4 3,167 $1,495,000 $1,560,000 $492 0 days 10/12/21
5180 Baggins Hill Road 4 2 2,656 $849,999 $850,000 $320 41 days 10/8/21
729 Gough Avenue 3 2 1,260 $645,000 $645,000 $511 0 days 10/6/21
55 River Run Road 3 2 1,488 $599,000 $599,000 $402 10 days 10/6/21
499 Hawley Street 3 2 1,308 $629,000 $615,000 $470 0 days 10/4/21
945 Santa Rita Road 3 3 1,979 $985,000 $986,910 $498 0 days 9/30/21
565 Salinas Avenue 3 3 2,050 $720,000 $705,000 $343 45 days 9/30/21
720 Salinas Avenue 4 2 1,758 $675,000 $702,000 $399 0 days 9/28/21
220 Granite Road 3 3 1,829 $739,000 $725,000 $396 0 days 9/24/21
1848 Orlen Lane 4 3 3,567 $1,500,000 $1,500,000 $420 0 days 9/17/21
110 Foxtail Lane 3 2 1,892 $830,000 $855,000 $451 0 days 9/13/21
1215 Santa Rita Road 5 4 3,118 $1,499,000 $1,744,400 $559 0 days 9/10/21
765 Vaquero Road 3 3 2,000 $975,000 $989,000 $494 10 days 9/10/21
1685 Sandalwood Lane 3 2 1,817 $875,000 $875,000 $481 0 days 9/7/21
1420 Meadow View Lane 4 4 3,850 $2,000,000 $1,990,000 $516 0 days 9/2/21
960 Peterson Ranch Road 3 2 1,852 $889,000 $889,000 $480 0 days 9/1/21
1204 Wine Country Place 3 3 1,980 $975,000 $947,000 $478 0 days 9/1/21
35 Hawley Street 4 2 1,550 $599,000 $625,000 $403 0 days 9/1/21
136 Rowan Way 3 3 1,690 $650,000 $700,000 $414 0 days 9/1/21
121 Headwaters Road 3 2 1,485 $612,000 $620,000 $417 38 days 8/31/21
1750 Vineyard Drive 3 3 1,814 $975,000 $965,000 $531 0 days 8/31/21
6850 E. Highway 41 2 2 2,021 $1,399,900 $1,300,000 $643 81 days 8/31/21
336 Willhoit Lane 3 4 1,680 $695,000 $777,000 $462 0 days 8/27/21
1415 Whippoorwill Lane 3 2 1,627 $599,000 $597,500 $367 0 days 8/26/21
60 Corrietta Court 3 3 1,504 $530,000 $530,000 $352 0 days 8/13/21
1110 Burnt Rock Way 4 4 3,855 $1,650,000 $1,775,000 $460 0 days 8/13/21
61 Sunnyside Drive 3 2 1,679 $679,000 $703,000 $418 0 days 8/12/21
1095 Megan Court 3 3 1,997 $685,900 $685,900 $343 0 days 8/11/21
1180 Burnt Rock Way 4 5 4,255 $2,250,000 $2,225,000 $522 0 days 8/10/21
745 Santa Rita Road 4 3 2,000 $898,900 $926,000 $463 0 days 8/10/21
255 X-Bar-D Way 3 3 1,380 $549,900 $570,000 $413 0 days 8/6/21
370 Ag Hill Road 3 3 2,260 $825,000 $825,000 $365 0 days 8/6/21
3260 Ridge Road 3 4 3,171 $1,100,000 $950,000 $299 0 days 8/6/21
169 Wessels Way 3 2 1,320 $539,000 $530,000 $401 0 days 8/4/21
1090 Casteel Lane 3 3 3,472 $1,595,000 $1,660,000 $478 0 days 8/4/21
215 Headwaters Rd 3 3 1,760 $659,000 $670,000 $380 0 days 8/3/21
44 Gray Pine Avenue 3 2 1,147 $459,000 $480,000 $418 0 days 8/2/21
99 S Main Street N/A N/A 1,176 $499,900 $425,000 $361 486 days 8/2/21
392 Eric Lane 3 3 1,644 $650,000 $640,000 $389 21 days 7/29/21
5340 Overhill Lane 3 3 2,790 $999,950 $935,000 $335 12 days 7/28/21
4997 Shadow Canyon Road 2 2 1,410 $819,000 $819,000 $580 0 days 7/27/21
820 Herdsman Way 3 4 3,053 $2,300,000 $2,100,000 $687 0 days 7/23/21
5475 Jack Creek Road 2 2 1,755 $1,029,000 $1,000,000 $569 93 days 7/22/21
1295 Sierra Meadow Lane 5 4 3,607 $1,650,000 $1,700,000 $471 0 days 7/21/21
2295 Pioneer Ranch Road 4 2 1,193 $534,500 $534,500 $448 146 days 7/15/21
7325 Old Adobe Way 7 7 3,952 $1,199,000 $1,100,000 $278 0 days 7/13/21
4214 High Grove Road 3 2 1,714 $1,465,000 $1,465,000 $854 0 days 7/9/21
295 X-Bar-D Way 3 3 1,386 $539,000 $559,000 $403 0 days 7/9/21
390 Ag Hill Road 3 3 2,260 $798,500 $805,805 $356 18 days 7/9/21
111 Kim Court 7 5 4,267 $1,750,000 $2,025,000 $474 0 days 7/8/21
Average: 3.6 3.1 2,374 $1,056,891 $1,071,209 $466 1 day
Viewing 1 - 50 of 100
Viewing 1 - 50 of 100

Based on information from California Regional Multiple Listing Service, Inc. as of . This information is for your personal, non-commercial use and may not be used for any purpose other than to identify prospective properties you may be interested in purchasing. Display of MLS data is usually deemed reliable but is NOT guaranteed accurate by the MLS. Buyers are responsible for verifying the accuracy of all information and should investigate the data themselves or retain appropriate professionals. Information from sources other than the Listing Agent may have been included in the MLS data. Unless otherwise specified in writing, Broker/Agent has not and will not verify any information obtained from other sources. The Broker/Agent providing the information contained herein may or may not have been the Listing and/or Selling Agent.